,,,PA_Meas_PMT16A,,PR_Meas_QMR101_102,,RH_Meas_QMH101,,SR_Meas_QMS101,,TA_Meas_QMH101,,GenWind,,GenWind,
date,time,status,PA,status,PR,status,RH,status,SR,status,TA,status,DirAvg,status,SpdAvg,
2011-07-02, 00:00:04,VALID,1003.8,VALID,0,INVALID,163.777,VALID,0,VALID,23.9177,VALID,1,VALID,0,
2011-07-02, 00:01:04,VALID,1003.79,VALID,0,INVALID,163.784,VALID,0,VALID,23.9177,VALID,1,VALID,0,
2011-07-02, 00:02:04,VALID,1003.81,VALID,0,INVALID,163.754,VALID,0,VALID,23.9177,VALID,1,VALID,0,
2011-07-02, 00:03:04,VALID,1003.75,VALID,0,INVALID,163.769,VALID,0,VALID,23.8769,VALID,1,VALID,0,
2011-07-02, 00:04:04,VALID,1003.76,VALID,0,INVALID,163.754,VALID,0,VALID,23.8982,VALID,1,VALID,0,
2011-07-02, 00:05:04,VALID,1003.72,VALID,0,INVALID,163.754,VALID,0,VALID,23.9177,VALID,1,VALID,0,
2011-07-02, 00:06:04,VALID,1003.73,VALID,0,INVALID,163.769,VALID,0,VALID,23.8982,VALID,1,VALID,0,
2011-07-02, 00:07:04,VALID,1003.67,VALID,0,INVALID,163.762,VALID,0,VALID,23.8982,VALID,1,VALID,0,
2011-07-02, 00:08:04,VALID,1003.7,VALID,0,INVALID,163.769,VALID,0,VALID,23.8769,VALID,1,VALID,0,
2011-07-02, 00:09:04,VALID,1003.66,VALID,0,INVALID,163.777,VALID,0,VALID,23.8769,VALID,1,VALID,0,
2011-07-02, 00:10:04,VALID,1003.65,VALID,0,INVALID,163.777,VALID,0,VALID,23.8769,VALID,1,VALID,0,
2011-07-02, 00:11:04,VALID,1003.63,VALID,0,INVALID,163.792,VALID,0,VALID,23.8769,VALID,1,VALID,0,
2011-07-02, 00:12:04,VALID,1003.62,VALID,0,INVALID,163.754,VALID,0,VALID,23.8787,VALID,1,VALID,0,
2011-07-02, 00:13:04,VALID,1003.63,VALID,0,INVALID,163.762,VALID,0,VALID,23.8575,VALID,1,VALID,0,
2011-07-02, 00:14:04,VALID,1003.61,VALID,0,INVALID,163.754,VALID,0,VALID,23.8982,VALID,1,VALID,0,
2011-07-02, 00:15:04,VALID,1003.57,VALID,0,INVALID,163.8,VALID,0,VALID,23.8751,VALID,1,VALID,0,
2011-07-02, 00:16:04,VALID,1003.58,VALID,0,INVALID,163.746,VALID,0.100563,VALID,23.8751,VALID,1,VALID,0,
2011-07-02, 00:17:04,VALID,1003.54,VALID,0,INVALID,163.807,VALID,0,VALID,23.8769,VALID,1,VALID,0,
2011-07-02, 00:18:04,VALID,1003.53,VALID,0,INVALID,163.823,VALID,0.100563,VALID,23.9159,VALID,1,VALID,0,
2011-07-02, 00:19:04,VALID,1003.54,VALID,0,INVALID,163.792,VALID,0.100563,VALID,23.8751,VALID,1,VALID,0,
2011-07-02, 00:20:04,VALID,1003.53,VALID,0,INVALID,163.769,VALID,0,VALID,23.8751,VALID,1,VALID,0,
2011-07-02, 00:21:04,VALID,1003.51,VALID,0,INVALID,163.769,VALID,0,VALID,23.8751,VALID,1,VALID,0,
2011-07-02, 00:22:04,VALID,1003.52,VALID,0,INVALID,163.746,VALID,0,VALID,23.8769,VALID,1,VALID,0,
2011-07-02, 00:23:04,VALID,1003.52,VALID,0,INVALID,163.777,VALID,0.100563,VALID,23.8556,VALID,1,VALID,0,
2011-07-02, 00:24:04,VALID,1003.48,VALID,0,INVALID,163.769,VALID,0,VALID,23.8769,VALID,1,VALID,0,
2011-07-02, 00:25:04,VALID,1003.47,VALID,0,INVALID,163.754,VALID,0.100563,VALID,23.8769,VALID,1,VALID,0,
2011-07-02, 00:26:04,VALID,1003.49,VALID,0,INVALID,163.777,VALID,0,VALID,23.9159,VALID,1,VALID,0,
2011-07-02, 00:27:04,VALID,1003.5,VALID,0,INVALID,163.754,VALID,0,VALID,23.9159,VALID,1,VALID,0,
2011-07-02, 00:28:04,VALID,1003.53,VALID,0,INVALID,163.792,VALID,0.100563,VALID,23.914,VALID,1,VALID,0,
2011-07-02, 00:29:04,VALID,1003.5,VALID,0,INVALID,163.746,VALID,0.100563,VALID,23.914,VALID,1,VALID,0,
2011-07-02, 00:30:04,VALID,1003.52,VALID,0,INVALID,163.769,VALID,0,VALID,23.9353,VALID,1,VALID,0,
2011-07-02, 00:31:04,VALID,1003.51,VALID,0,INVALID,163.762,VALID,0.100563,VALID,23.9353,VALID,1,VALID,0,
2011-07-02, 00:32:04,VALID,1003.5,VALID,0,INVALID,163.762,VALID,0,VALID,23.9353,VALID,1,VALID,0,
2011-07-02, 00:33:04,VALID,1003.51,VALID,0,INVALID,163.792,VALID,0,VALID,23.9353,VALID,1,VALID,0,
2011-07-02, 00:34:04,VALID,1003.52,VALID,0,INVALID,163.769,VALID,0.100563,VALID,23.914,VALID,1,VALID,0,
2011-07-02, 00:35:04,VALID,1003.51,VALID,0,INVALID,163.777,VALID,0,VALID,23.9353,VALID,1,VALID,0,
2011-07-02, 00:36:04,VALID,1003.5,VALID,0,INVALID,163.784,VALID,0.100563,VALID,23.9159,VALID,1,VALID,0,
2011-07-02, 00:37:04,VALID,1003.5,VALID,0,INVALID,163.792,VALID,0,VALID,23.9159,VALID,1,VALID,0,
2011-07-02, 00:38:04,VALID,1003.47,VALID,0,INVALID,163.777,VALID,0,VALID,23.8751,VALID,1,VALID,0,
2011-07-02, 00:39:04,VALID,1003.44,VALID,0,INVALID,163.754,VALID,0,VALID,23.8964,VALID,1,VALID,0,
2011-07-02, 00:40:04,VALID,1003.46,VALID,0,INVALID,163.769,VALID,0,VALID,23.8751,VALID,1,VALID,0,
2011-07-02, 00:41:04,VALID,1003.42,VALID,0,INVALID,163.777,VALID,0.100563,VALID,23.8769,VALID,1,VALID,0,
2011-07-02, 00:42:04,VALID,1003.42,VALID,0,INVALID,163.754,VALID,0,VALID,23.8769,VALID,1,VALID,0,
2011-07-02, 00:43:04,VALID,1003.38,VALID,0,INVALID,163.769,VALID,0.100563,VALID,23.8964,VALID,1,VALID,0,
2011-07-02, 00:44:04,VALID,1003.37,VALID,0,INVALID,163.784,VALID,0,VALID,23.8769,VALID,1,VALID,0,
2011-07-02, 00:45:04,VALID,1003.37,VALID,0,INVALID,163.807,VALID,0,VALID,23.8769,VALID,1,VALID,0,
2011-07-02, 00:46:04,VALID,1003.33,VALID,0,INVALID,163.784,VALID,0,VALID,23.8769,VALID,1,VALID,0,
2011-07-02, 00:47:04,VALID,1003.35,VALID,0,INVALID,163.769,VALID,0,VALID,23.8964,VALID,1,VALID,0,
2011-07-02, 00:48:04,VALID,1003.36,VALID,0,INVALID,163.769,VALID,0,VALID,23.9371,VALID,1,VALID,0,
2011-07-02, 00:49:04,VALID,1003.35,VALID,0,INVALID,163.784,VALID,0.100563,VALID,23.9566,VALID,1,VALID,0,
2011-07-02, 00:50:04,VALID,1003.35,VALID,0,INVALID,163.762,VALID,0,VALID,23.9371,VALID,1,VALID,0,
2011-07-02, 00:51:04,VALID,1003.35,VALID,0,INVALID,163.769,VALID,0,VALID,23.8964,VALID,1,VALID,0,
2011-07-02, 00:52:04,VALID,1003.35,VALID,0,INVALID,163.762,VALID,0,VALID,23.9159,VALID,1,VALID,0,
2011-07-02, 00:53:04,VALID,1003.36,VALID,0,INVALID,163.792,VALID,0.100563,VALID,23.9159,VALID,1,VALID,0,
2011-07-02, 00:54:04,VALID,1003.37,VALID,0,INVALID,163.762,VALID,0,VALID,23.8964,VALID,1,VALID,0,
2011-07-02, 00:55:04,VALID,1003.35,VALID,0,INVALID,163.784,VALID,0,VALID,23.8964,VALID,1,VALID,0,
2011-07-02, 00:56:04,VALID,1003.36,VALID,0,INVALID,163.784,VALID,0,VALID,23.8769,VALID,1,VALID,0,
2011-07-02, 00:57:04,VALID,1003.35,VALID,0,INVALID,163.777,VALID,0,VALID,23.8556,VALID,1,VALID,0,
2011-07-02, 00:58:04,VALID,1003.32,VALID,0,INVALID,163.762,VALID,0,VALID,23.8769,VALID,1,VALID,0,
2011-07-02, 00:59:04,VALID,1003.33,VALID,0,INVALID,163.807,VALID,0,VALID,23.8575,VALID,1,VALID,0,
2011-07-02, 01:00:04,VALID,1003.33,VALID,0,INVALID,163.792,VALID,0,VALID,23.8575,VALID,1,VALID,0,
2011-07-02, 01:01:04,VALID,1003.29,VALID,0,INVALID,163.792,VALID,0.100563,VALID,23.838,VALID,1,VALID,0,
2011-07-02, 01:02:04,VALID,1003.33,VALID,0,INVALID,163.784,VALID,0.100563,VALID,23.838,VALID,1,VALID,0,
2011-07-02, 01:03:04,VALID,1003.32,VALID,0,INVALID,163.769,VALID,0.100563,VALID,23.838,VALID,1,VALID,0,
2011-07-02, 01:04:04,VALID,1003.3,VALID,0,INVALID,163.762,VALID,0.100563,VALID,23.838,VALID,1,VALID,0,
2011-07-02, 01:05:04,VALID,1003.31,VALID,0,INVALID,163.769,VALID,0,VALID,23.838,VALID,1,VALID,0,
2011-07-02, 01:06:04,VALID,1003.31,VALID,0,INVALID,163.762,VALID,0,VALID,23.838,VALID,1,VALID,0,
2011-07-02, 01:07:04,VALID,1003.32,VALID,0,INVALID,163.769,VALID,0.100563,VALID,23.7973,VALID,1,VALID,0,
2011-07-02, 01:08:04,VALID,1003.3,VALID,0,INVALID,163.777,VALID,0.100563,VALID,23.7991,VALID,1,VALID,0,
2011-07-02, 01:09:04,VALID,1003.29,VALID,0,INVALID,163.8,VALID,0.100563,VALID,23.7778,VALID,1,VALID,0,
2011-07-02, 01:10:04,VALID,1003.32,VALID,0,INVALID,163.8,VALID,0.100563,VALID,23.7601,VALID,1,VALID,0,
2011-07-02, 01:11:04,VALID,1003.29,VALID,0,INVALID,163.777,VALID,0,VALID,23.7601,VALID,1,VALID,0,
2011-07-02, 01:12:04,VALID,1003.29,VALID,0,INVALID,163.762,VALID,0.100563,VALID,23.7601,VALID,1,VALID,0,
2011-07-02, 01:13:04,VALID,1003.28,VALID,0,INVALID,163.769,VALID,0.100563,VALID,23.7194,VALID,1,VALID,0,
2011-07-02, 01:14:04,VALID,1003.27,VALID,0,INVALID,163.762,VALID,0.100563,VALID,23.7389,VALID,1,VALID,0,
2011-07-02, 01:15:04,VALID,1003.26,VALID,0,INVALID,163.784,VALID,0.100563,VALID,23.7407,VALID,1,VALID,0,
2011-07-02, 01:16:04,VALID,1003.24,VALID,0,INVALID,163.769,VALID,0.100563,VALID,23.7389,VALID,1,VALID,0,
2011-07-02, 01:17:04,VALID,1003.25,VALID,0,INVALID,163.8,VALID,0.100563,VALID,23.7407,VALID,1,VALID,0,
2011-07-02, 01:18:04,VALID,1003.2,VALID,0,INVALID,163.784,VALID,0.100563,VALID,23.7407,VALID,1,VALID,0,
2011-07-02, 01:19:04,VALID,1003.2,VALID,0,INVALID,163.807,VALID,0,VALID,23.7407,VALID,1,VALID,0,
2011-07-02, 01:20:04,VALID,1003.19,VALID,0,INVALID,163.784,VALID,0.100563,VALID,23.7,VALID,1,VALID,0,
2011-07-02, 01:21:04,VALID,1003.16,VALID,0,INVALID,163.784,VALID,0.100563,VALID,23.7,VALID,1,VALID,0,
2011-07-02, 01:22:04,VALID,1003.16,VALID,0,INVALID,163.784,VALID,0,VALID,23.7017,VALID,1,VALID,0,
2011-07-02, 01:23:04,VALID,1003.16,VALID,0,INVALID,163.8,VALID,0,VALID,23.7017,VALID,1,VALID,0,
2011-07-02, 01:24:04,VALID,1003.13,VALID,0,INVALID,163.777,VALID,0.100563,VALID,23.7,VALID,1,VALID,0,
2011-07-02, 01:25:04,VALID,1003.13,VALID,0,INVALID,163.784,VALID,0.100563,VALID,23.6805,VALID,1,VALID,0,
2011-07-02, 01:26:04,VALID,1003.12,VALID,0,INVALID,163.792,VALID,0.100563,VALID,23.6823,VALID,1,VALID,0,
2011-07-02, 01:27:04,VALID,1003.12,VALID,0,INVALID,163.8,VALID,0.100563,VALID,23.661,VALID,1,VALID,0,
2011-07-02, 01:28:04,VALID,1003.1,VALID,0,INVALID,163.792,VALID,0.100563,VALID,23.661,VALID,1,VALID,0,
2011-07-02, 01:29:04,VALID,1003.06,VALID,0,INVALID,163.784,VALID,0.100563,VALID,23.661,VALID,1,VALID,0,
2011-07-02, 01:30:04,VALID,1003.02,VALID,0,INVALID,163.784,VALID,0.100563,VALID,23.6416,VALID,1,VALID,0,
2011-07-02, 01:31:04,VALID,1003.04,VALID,0,INVALID,163.777,VALID,0.100563,VALID,23.6416,VALID,1,VALID,0,
2011-07-02, 01:32:04,VALID,1003,VALID,0,INVALID,163.792,VALID,0.100563,VALID,23.6434,VALID,1,VALID,0,
2011-07-02, 01:33:04,VALID,1002.96,VALID,0,INVALID,163.792,VALID,0.100563,VALID,23.6416,VALID,1,VALID,0,
2011-07-02, 01:34:04,VALID,1002.94,VALID,0,INVALID,163.8,VALID,0.100563,VALID,23.6026,VALID,1,VALID,0,
2011-07-02, 01:35:04,VALID,1002.92,VALID,0,INVALID,163.8,VALID,0.100563,VALID,23.6026,VALID,1,VALID,0,
2011-07-02, 01:36:04,VALID,1002.88,VALID,0,INVALID,163.792,VALID,0.100563,VALID,23.6221,VALID,1,VALID,0,
2011-07-02, 01:37:04,VALID,1002.85,VALID,0,INVALID,163.784,VALID,0.100563,VALID,23.6239,VALID,1,VALID,0,
2011-07-02, 01:38:04,VALID,1002.84,VALID,0,INVALID,163.784,VALID,0.100563,VALID,23.6221,VALID,1,VALID,0,
2011-07-02, 01:39:04,VALID,1002.82,VALID,0,INVALID,163.784,VALID,0.100563,VALID,23.6434,VALID,1,VALID,0,
2011-07-02, 01:40:04,VALID,1002.81,VALID,0,INVALID,163.784,VALID,0.100563,VALID,23.6823,VALID,1,VALID,0,
2011-07-02, 01:41:04,VALID,1002.81,VALID,0,INVALID,163.792,VALID,0.100563,VALID,23.661,VALID,1,VALID,0,
2011-07-02, 01:42:04,VALID,1002.79,VALID,0,INVALID,163.784,VALID,0,VALID,23.6823,VALID,1,VALID,0,
2011-07-02, 01:43:04,VALID,1002.78,VALID,0,INVALID,163.777,VALID,0,VALID,23.661,VALID,1,VALID,0,
2011-07-02, 01:44:04,VALID,1002.79,VALID,0,INVALID,163.762,VALID,0,VALID,23.661,VALID,1,VALID,0,
2011-07-02, 01:45:04,VALID,1002.76,VALID,0,INVALID,163.792,VALID,0,VALID,23.6646,VALID,1,VALID,0,
2011-07-02, 01:46:04,VALID,1002.74,VALID,0,INVALID,163.823,VALID,0,VALID,23.6434,VALID,1,VALID,0,
2011-07-02, 01:47:04,VALID,1002.72,VALID,0,INVALID,163.784,VALID,0,VALID,23.6646,VALID,1,VALID,0,
2011-07-02, 01:48:04,VALID,1002.71,VALID,0,INVALID,163.784,VALID,0,VALID,23.6434,VALID,1,VALID,0,
2011-07-02, 01:49:04,VALID,1002.67,VALID,0,INVALID,163.807,VALID,0,VALID,23.6434,VALID,1,VALID,0,
2011-07-02, 01:50:04,VALID,1002.66,VALID,0,INVALID,163.777,VALID,0,VALID,23.6239,VALID,1,VALID,0,
2011-07-02, 01:51:04,VALID,1002.64,VALID,0,INVALID,163.777,VALID,0,VALID,23.6044,VALID,1,VALID,0,
2011-07-02, 01:52:04,VALID,1002.64,VALID,0,INVALID,163.815,VALID,0,VALID,23.585,VALID,1,VALID,0,
2011-07-02, 01:53:04,VALID,1002.65,VALID,0,INVALID,163.8,VALID,0,VALID,23.5655,VALID,1,VALID,0,
2011-07-02, 01:54:04,VALID,1002.63,VALID,0,INVALID,163.8,VALID,0,VALID,23.5673,VALID,1,VALID,0,
2011-07-02, 01:55:04,VALID,1002.63,VALID,0,INVALID,163.792,VALID,0,VALID,23.5266,VALID,1,VALID,0,
2011-07-02, 01:56:04,VALID,1002.62,VALID,0,INVALID,163.769,VALID,0,VALID,23.5284,VALID,1,VALID,0,
2011-07-02, 01:57:04,VALID,1002.61,VALID,0,INVALID,163.792,VALID,0,VALID,23.4877,VALID,1,VALID,0,
2011-07-02, 01:58:04,VALID,1002.63,VALID,0,INVALID,163.784,VALID,0,VALID,23.5089,VALID,1,VALID,0,
2011-07-02, 01:59:04,VALID,1002.61,VALID,0,INVALID,163.8,VALID,0,VALID,23.4682,VALID,1,VALID,0,
2011-07-02, 02:00:04,VALID,1002.61,VALID,0,INVALID,163.792,VALID,0,VALID,23.4682,VALID,1,VALID,0,
2011-07-02, 02:01:04,VALID,1002.6,VALID,0,INVALID,163.83,VALID,0.100563,VALID,23.4877,VALID,1,VALID,0,
2011-07-02, 02:02:04,VALID,1002.55,VALID,0,INVALID,163.792,VALID,0,VALID,23.4877,VALID,1,VALID,0,
2011-07-02, 02:03:04,VALID,1002.51,VALID,0,INVALID,163.807,VALID,0,VALID,23.4682,VALID,1,VALID,0,
2011-07-02, 02:04:04,VALID,1002.5,VALID,0,INVALID,163.8,VALID,0,VALID,23.4487,VALID,1,VALID,0,
2011-07-02, 02:05:04,VALID,1002.5,VALID,0,INVALID,163.815,VALID,0,VALID,23.4098,VALID,1,VALID,0,
2011-07-02, 02:06:04,VALID,1002.48,VALID,0,INVALID,163.823,VALID,0,VALID,23.3904,VALID,1,VALID,0,
2011-07-02, 02:07:04,VALID,1002.45,VALID,0,INVALID,163.807,VALID,0,VALID,23.3904,VALID,1,VALID,0,
2011-07-02, 02:08:04,VALID,1002.45,VALID,0,INVALID,163.823,VALID,0,VALID,23.3904,VALID,1,VALID,0,
2011-07-02, 02:09:04,VALID,1002.44,VALID,0,INVALID,163.823,VALID,0,VALID,23.3904,VALID,1,VALID,0,
2011-07-02, 02:10:04,VALID,1002.44,VALID,0,INVALID,163.823,VALID,0,VALID,23.3921,VALID,1,VALID,0,
2011-07-02, 02:11:04,VALID,1002.4,VALID,0,INVALID,163.807,VALID,0.100563,VALID,23.3497,VALID,1,VALID,0,
2011-07-02, 02:12:04,VALID,1002.4,VALID,0,INVALID,163.8,VALID,0,VALID,23.3709,VALID,1,VALID,0,
2011-07-02, 02:13:04,VALID,1002.41,VALID,0,INVALID,163.807,VALID,0,VALID,23.3514,VALID,1,VALID,0,
2011-07-02, 02:14:04,VALID,1002.43,VALID,0,INVALID,163.8,VALID,0,VALID,23.3532,VALID,1,VALID,0,
2011-07-02, 02:15:04,VALID,1002.44,VALID,0,INVALID,163.815,VALID,0,VALID,23.2913,VALID,1,VALID,0,
2011-07-02, 02:16:04,VALID,1002.44,VALID,0,INVALID,163.807,VALID,0,VALID,23.2931,VALID,1,VALID,0,
2011-07-02, 02:17:04,VALID,1002.43,VALID,0,INVALID,163.838,VALID,0,VALID,23.3125,VALID,1,VALID,0,
2011-07-02, 02:18:04,VALID,1002.42,VALID,0,INVALID,163.807,VALID,0.100563,VALID,23.3337,VALID,1,VALID,0,
2011-07-02, 02:19:04,VALID,1002.43,VALID,0,INVALID,163.815,VALID,0,VALID,23.332,VALID,1,VALID,0,
2011-07-02, 02:20:04,VALID,1002.4,VALID,0,INVALID,163.8,VALID,0,VALID,23.3709,VALID,1,VALID,0,
2011-07-02, 02:21:04,VALID,1002.39,VALID,0,INVALID,163.784,VALID,0,VALID,23.4293,VALID,1,VALID,0,
2011-07-02, 02:22:04,VALID,1002.39,VALID,0,INVALID,163.8,VALID,0.100563,VALID,23.447,VALID,1,VALID,0,
2011-07-02, 02:23:04,VALID,1002.39,VALID,0,INVALID,163.792,VALID,0,VALID,23.4877,VALID,1,VALID,0,
2011-07-02, 02:24:04,VALID,1002.39,VALID,0,INVALID,163.807,VALID,0.100563,VALID,23.5266,VALID,1,VALID,0,
2011-07-02, 02:25:04,VALID,1002.37,VALID,0,INVALID,163.815,VALID,0,VALID,23.546,VALID,1,VALID,0,
2011-07-02, 02:26:04,VALID,1002.36,VALID,0,INVALID,163.8,VALID,0,VALID,23.5478,VALID,1,VALID,0,
2011-07-02, 02:27:04,VALID,1002.34,VALID,0,INVALID,163.777,VALID,0,VALID,23.5071,VALID,1,VALID,0,
2011-07-02, 02:28:04,VALID,1002.3,VALID,0,INVALID,163.807,VALID,0,VALID,23.4682,VALID,1,VALID,0,
2011-07-02, 02:29:04,VALID,1002.29,VALID,0,INVALID,163.815,VALID,0,VALID,23.4487,VALID,1,VALID,0,
2011-07-02, 02:30:04,VALID,1002.27,VALID,0,INVALID,163.815,VALID,0,VALID,23.4116,VALID,1,VALID,0,
2011-07-02, 02:31:04,VALID,1002.23,VALID,0,INVALID,163.83,VALID,0,VALID,23.3514,VALID,1,VALID,0,
2011-07-02, 02:32:04,VALID,1002.23,VALID,0,INVALID,163.815,VALID,0,VALID,23.3532,VALID,1,VALID,0,
2011-07-02, 02:33:04,VALID,1002.2,VALID,0,INVALID,163.807,VALID,0,VALID,23.3532,VALID,1,VALID,0,
2011-07-02, 02:34:04,VALID,1002.18,VALID,0,INVALID,163.777,VALID,0,VALID,23.3125,VALID,1,VALID,0,
2011-07-02, 02:35:04,VALID,1002.2,VALID,0,INVALID,163.815,VALID,0,VALID,23.2931,VALID,1,VALID,0,
2011-07-02, 02:36:04,VALID,1002.18,VALID,0,INVALID,163.807,VALID,0,VALID,23.2948,VALID,1,VALID,0,
2011-07-02, 02:37:04,VALID,1002.18,VALID,0,INVALID,163.838,VALID,0,VALID,23.2754,VALID,1,VALID,0,
2011-07-02, 02:38:04,VALID,1002.2,VALID,0,INVALID,163.838,VALID,0,VALID,23.2948,VALID,1,VALID,0,
2011-07-02, 02:39:04,VALID,1002.17,VALID,0,INVALID,163.792,VALID,0,VALID,23.3532,VALID,1,VALID,0,
2011-07-02, 02:40:04,VALID,1002.15,VALID,0,INVALID,163.807,VALID,0,VALID,23.3727,VALID,1,VALID,0,
2011-07-02, 02:41:04,VALID,1002.13,VALID,0,INVALID,163.784,VALID,0,VALID,23.3727,VALID,1,VALID,0,
2011-07-02, 02:42:04,VALID,1002.11,VALID,0,INVALID,163.8,VALID,0,VALID,23.3532,VALID,1,VALID,0,
2011-07-02, 02:43:04,VALID,1002.09,VALID,0,INVALID,163.8,VALID,0,VALID,23.3337,VALID,1,VALID,0,
2011-07-02, 02:44:04,VALID,1002.12,VALID,0,INVALID,163.8,VALID,0,VALID,23.2754,VALID,1,VALID,0,
2011-07-02, 02:45:04,VALID,1002.12,VALID,0,INVALID,163.807,VALID,0,VALID,23.2541,VALID,1,VALID,0,
2011-07-02, 02:46:04,VALID,1002.1,VALID,0,INVALID,163.83,VALID,0,VALID,23.2559,VALID,1,VALID,0,
2011-07-02, 02:47:04,VALID,1002.11,VALID,0,INVALID,163.838,VALID,0,VALID,23.2364,VALID,1,VALID,0,
2011-07-02, 02:48:04,VALID,1002.13,VALID,0,INVALID,163.792,VALID,0,VALID,23.2364,VALID,1,VALID,0,
2011-07-02, 02:49:04,VALID,1002.13,VALID,0,INVALID,163.838,VALID,0,VALID,23.2364,VALID,1,VALID,0,
2011-07-02, 02:50:04,VALID,1002.15,VALID,0,INVALID,163.807,VALID,0,VALID,23.2559,VALID,1,VALID,0,
2011-07-02, 02:51:04,VALID,1002.17,VALID,0,INVALID,163.823,VALID,0,VALID,23.2559,VALID,1,VALID,0,
2011-07-02, 02:52:04,VALID,1002.21,VALID,0,INVALID,163.83,VALID,0,VALID,23.2966,VALID,1,VALID,0,
2011-07-02, 02:53:04,VALID,1002.24,VALID,0,INVALID,163.815,VALID,0,VALID,23.2736,VALID,1,VALID,0,
2011-07-02, 02:54:04,VALID,1002.23,VALID,0,INVALID,163.823,VALID,0,VALID,23.2736,VALID,1,VALID,0,
2011-07-02, 02:55:04,VALID,1002.27,VALID,0,INVALID,163.792,VALID,0,VALID,23.316,VALID,1,VALID,0,
2011-07-02, 02:56:04,VALID,1002.27,VALID,0,INVALID,163.807,VALID,0,VALID,23.2948,VALID,1,VALID,0,
2011-07-02, 02:57:04,VALID,1002.31,VALID,0,INVALID,163.807,VALID,0,VALID,23.2948,VALID,1,VALID,0,
2011-07-02, 02:58:04,VALID,1002.32,VALID,0,INVALID,163.823,VALID,0,VALID,23.2948,VALID,1,VALID,0,
2011-07-02, 02:59:04,VALID,1002.3,VALID,0,INVALID,163.823,VALID,0,VALID,23.2948,VALID,1,VALID,0,
2011-07-02, 03:00:04,VALID,1002.3,VALID,0,INVALID,163.83,VALID,0,VALID,23.3143,VALID,1,VALID,0,
2011-07-02, 03:01:04,VALID,1002.28,VALID,0,INVALID,163.83,VALID,0,VALID,23.3143,VALID,1,VALID,0,
2011-07-02, 03:02:04,VALID,1002.27,VALID,0,INVALID,163.8,VALID,0,VALID,23.3337,VALID,10,VALID,0,
2011-07-02, 03:03:04,VALID,1002.26,VALID,0,INVALID,163.815,VALID,0,VALID,23.3337,VALID,10,VALID,0,
2011-07-02, 03:04:04,VALID,1002.27,VALID,0,INVALID,163.792,VALID,0,VALID,23.3532,VALID,10,VALID,0,
2011-07-02, 03:05:04,VALID,1002.3,VALID,0,INVALID,163.83,VALID,0,VALID,23.3532,VALID,10,VALID,0,
2011-07-02, 03:06:04,VALID,1002.32,VALID,0,INVALID,163.8,VALID,0,VALID,23.3727,VALID,10,VALID,0,
2011-07-02, 03:07:04,VALID,1002.33,VALID,0,INVALID,163.8,VALID,0,VALID,23.4116,VALID,219,VALID,0,
2011-07-02, 03:08:04,VALID,1002.3,VALID,0,INVALID,163.784,VALID,0,VALID,23.5885,VALID,178,VALID,0,
2011-07-02, 03:09:04,VALID,1002.39,VALID,0,INVALID,163.8,VALID,0,VALID,23.6823,VALID,182,VALID,0,
2011-07-02, 03:10:04,VALID,1002.37,VALID,0,INVALID,163.777,VALID,0,VALID,23.723,VALID,182,VALID,0,
2011-07-02, 03:11:04,VALID,1002.43,VALID,0,INVALID,163.807,VALID,0,VALID,23.7035,VALID,182,VALID,0,
2011-07-02, 03:12:04,VALID,1002.47,VALID,0,INVALID,163.762,VALID,0,VALID,23.723,VALID,182,VALID,0,
2011-07-02, 03:13:04,VALID,1002.49,VALID,0,INVALID,163.784,VALID,0,VALID,23.7017,VALID,188,VALID,0,
2011-07-02, 03:14:04,VALID,1002.5,VALID,0,INVALID,163.792,VALID,0,VALID,23.723,VALID,258,VALID,0,
2011-07-02, 03:15:04,VALID,1002.53,VALID,0,INVALID,163.792,VALID,0,VALID,23.7425,VALID,258,VALID,0,
2011-07-02, 03:16:04,VALID,1002.58,VALID,0,INVALID,163.754,VALID,0,VALID,23.7796,VALID,203,VALID,0,
2011-07-02, 03:17:04,VALID,1002.64,VALID,0,INVALID,163.777,VALID,0.100563,VALID,23.8982,VALID,25,VALID,0,
2011-07-02, 03:18:04,VALID,1002.63,VALID,0,INVALID,163.784,VALID,0,VALID,23.9353,VALID,259,VALID,0,
2011-07-02, 03:19:04,VALID,1002.64,VALID,0.5,INVALID,163.746,VALID,0,VALID,23.9742,VALID,284,VALID,0,
2011-07-02, 03:20:04,VALID,1002.61,VALID,0,INVALID,163.769,VALID,0,VALID,24.015,VALID,263,VALID,0,
2011-07-02, 03:21:04,VALID,1002.63,VALID,0.5,INVALID,163.769,VALID,0,VALID,24.0326,VALID,254,VALID,0,
2011-07-02, 03:22:04,VALID,1002.7,VALID,0.5,INVALID,163.769,VALID,0,VALID,24.0132,VALID,250,VALID,0,
2011-07-02, 03:23:04,VALID,1002.71,VALID,0.5,INVALID,163.746,VALID,0,VALID,23.9955,VALID,327,VALID,0,
2011-07-02, 03:24:04,VALID,1002.72,VALID,0.5,INVALID,163.769,VALID,0.100563,VALID,23.9548,VALID,342,VALID,0,
2011-07-02, 03:25:04,VALID,1002.69,VALID,0.5,INVALID,163.792,VALID,0,VALID,23.9159,VALID,269,VALID,0,
2011-07-02, 03:26:04,VALID,1002.67,VALID,0,INVALID,163.792,VALID,0.100563,VALID,23.8362,VALID,351,VALID,0,
2011-07-02, 03:27:04,VALID,1002.7,VALID,0,INVALID,163.792,VALID,0.100563,VALID,23.838,VALID,252,VALID,0,
2011-07-02, 03:28:04,VALID,1002.71,VALID,0.5,INVALID,163.762,VALID,0,VALID,23.7991,VALID,295,VALID,0,
2011-07-02, 03:29:04,VALID,1002.69,VALID,0,INVALID,163.792,VALID,0,VALID,23.7601,VALID,304,VALID,0,
2011-07-02, 03:30:04,VALID,1002.67,VALID,0,INVALID,163.762,VALID,0,VALID,23.723,VALID,311,VALID,0,
2011-07-02, 03:31:04,VALID,1002.66,VALID,0,INVALID,163.777,VALID,0,VALID,23.6434,VALID,282,VALID,0,
2011-07-02, 03:32:04,VALID,1002.61,VALID,0,INVALID,163.777,VALID,0,VALID,23.6239,VALID,343,VALID,0,
2011-07-02, 03:33:04,VALID,1002.62,VALID,0,INVALID,163.784,VALID,0,VALID,23.6239,VALID,309,VALID,0,
2011-07-02, 03:34:04,VALID,1002.62,VALID,0.5,INVALID,163.8,VALID,0,VALID,23.6239,VALID,305,VALID,0,
2011-07-02, 03:35:04,VALID,1002.6,VALID,0,INVALID,163.777,VALID,0,VALID,23.6452,VALID,351,VALID,0,
2011-07-02, 03:36:04,VALID,1002.62,VALID,0,INVALID,163.777,VALID,0,VALID,23.6239,VALID,353,VALID,0,
2011-07-02, 03:37:04,VALID,1002.61,VALID,0,INVALID,163.8,VALID,0.100563,VALID,23.6239,VALID,1,VALID,0,
2011-07-02, 03:38:04,VALID,1002.61,VALID,0,INVALID,163.792,VALID,0,VALID,23.6257,VALID,298,VALID,0,
2011-07-02, 03:39:04,VALID,1002.66,VALID,0,INVALID,163.8,VALID,0,VALID,23.6044,VALID,355,VALID,0,
2011-07-02, 03:40:04,VALID,1002.66,VALID,0,INVALID,163.807,VALID,0,VALID,23.6239,VALID,20,VALID,0,
2011-07-02, 03:41:04,VALID,1002.64,VALID,0.5,INVALID,163.792,VALID,0,VALID,23.6239,VALID,348,VALID,0,
2011-07-02, 03:42:04,VALID,1002.63,VALID,0,INVALID,163.769,VALID,0,VALID,23.5637,VALID,338,VALID,0,
2011-07-02, 03:43:04,VALID,1002.6,VALID,0,INVALID,163.8,VALID,0.100563,VALID,23.5478,VALID,326,VALID,0,
2011-07-02, 03:44:04,VALID,1002.6,VALID,0,INVALID,163.807,VALID,0,VALID,23.4877,VALID,263,VALID,0,
2011-07-02, 03:45:04,VALID,1002.57,VALID,0,INVALID,163.792,VALID,0,VALID,23.4311,VALID,307,VALID,0,
2011-07-02, 03:46:04,VALID,1002.61,VALID,0.5,INVALID,163.823,VALID,0,VALID,23.3709,VALID,300,VALID,0,
2011-07-02, 03:47:04,VALID,1002.58,VALID,0,INVALID,163.807,VALID,0,VALID,23.332,VALID,271,VALID,0,
2011-07-02, 03:48:04,VALID,1002.54,VALID,0,INVALID,163.83,VALID,0,VALID,23.3125,VALID,18,VALID,0,
2011-07-02, 03:49:04,VALID,1002.54,VALID,0,INVALID,163.807,VALID,0,VALID,23.2541,VALID,303,VALID,0,
2011-07-02, 03:50:04,VALID,1002.52,VALID,0,INVALID,163.807,VALID,0,VALID,23.2541,VALID,271,VALID,0,
2011-07-02, 03:51:04,VALID,1002.49,VALID,0,INVALID,163.807,VALID,0,VALID,23.2152,VALID,271,VALID,0,
2011-07-02, 03:52:04,VALID,1002.45,VALID,0,INVALID,163.823,VALID,0.100563,VALID,23.2364,VALID,324,VALID,0,
2011-07-02, 03:53:04,VALID,1002.48,VALID,0,INVALID,163.838,VALID,0,VALID,23.1957,VALID,324,VALID,0,
2011-07-02, 03:54:04,VALID,1002.47,VALID,0,INVALID,163.845,VALID,0,VALID,23.1763,VALID,336,VALID,0,
2011-07-02, 03:55:04,VALID,1002.47,VALID,0,INVALID,163.807,VALID,0.100563,VALID,23.1975,VALID,356,VALID,0,